Location: Newark
(50.0821°N, 8.2414°E)
Time: 09:15:04
(UTC+00:00)

ISS - Pass Details

Date: 26 July 2019
Orbit: 410 x 421 km, 51.6° (Epoch: 26 August)

Event Time Altitude Azimuth Distance (km) Brightness Sun altitude
Rises 22:14:58 0° 287° (WNW) 2,373 0.6 -18.4°
Reaches altitude 10° 22:17:07 10° 282° (WNW) 1,504 -0.6 -18.5°
Enters shadow 22:20:01 45° 231° (SW) 577 -3.3 -18.7°
